Weather History for Manitowish Waters, Manitowish, WI

Change the Weather History Date:

Wednesday, December 11, 2013

  Actual Average (KARV) Record (KARV)
Temperature  
Mean Temperature -8 °F -  
Max Temperature -3 °F 23 °F 51 °F (1913)
Min Temperature -13 °F 4 °F -27 °F (1977)
Degree Days  
Heating Degree Days 73    
Moisture  
Dew Point -15 °F    
Average Humidity 76    
Maximum Humidity 81    
Minimum Humidity 65    
Precipitation  
Precipitation 0.00 in - - ()
Sea Level Pressure  
Sea Level Pressure 30.22 in    
Wind  
Wind Speed 6 mph (WSW)    
Max Wind Speed 13 mph    
Max Gust Speed 17 mph    
Visibility 10 miles    
Events Snow    
Averages and records for this station are not official NWS values.
T = Trace of Precipitation, MM = Missing Value Source: NWS Daily Summary

Daily Weather History Graph

Daily Weather History Graph

Search for Another Location

Airport:

Trip Planner

Search our weather history database for the weather conditions in past years. The results will help you decide how hot, cold, wet, or windy it might be!

Date:

Astronomy

Dec. 11, 2013 Rise Set
Actual Time 7:32 AM CST 4:13 PM CST
Civil Twilight 6:57 AM CST 4:48 PM CST
Nautical Twilight 6:19 AM CST 5:26 PM CST
Astronomical Twilight 5:43 AM CST 6:02 PM CST
Moon 1:01 PM CST (12/11) 1:38 AM CST (12/11)
Length of Visible Light 9h 50m
Length of Day
8h 41m
Waxing Gibbous, 72% of the Moon is Illuminated
Dec 11
Waxing Gibbous
Dec 17
Full
Dec 25
Last Quarter
Jan 1
New
Jan 7
First Quarter

Hourly Weather History & Observations

Time (CST) Temp. Windchill Dew Point Humidity Pressure Visibility Wind Dir Wind Speed Gust Speed Precip Events Conditions
12:15 AM -7.2 °F -18.3 °F -11.7 °F 81% 30.05 in 7.0 mi West 4.6 mph - N/A Snow Light Snow
12:35 AM -7.6 °F -16.5 °F -12.1 °F 81% 30.05 in 10.0 mi West 3.5 mph - N/A Snow Light Snow
12:55 AM -8.7 °F -17.8 °F -13.2 °F 81% 30.05 in 10.0 mi West 3.5 mph - N/A   Clear
1:15 AM -8.7 °F -17.8 °F -13.0 °F 81% 30.06 in 10.0 mi West 3.5 mph - N/A   Clear
1:35 AM -9.2 °F -18.4 °F -13.7 °F 81% 30.07 in 10.0 mi WSW 3.5 mph - N/A   Clear
1:55 AM -9.0 °F -22.3 °F -13.4 °F 81% 30.08 in 10.0 mi West 5.8 mph - N/A   Clear
2:15 AM -8.5 °F -21.6 °F -13.0 °F 81% 30.09 in 10.0 mi West 5.8 mph - N/A   Clear
2:35 AM -8.7 °F -23.4 °F -13.4 °F 80% 30.09 in 10.0 mi West 6.9 mph - N/A   Clear
2:55 AM -8.3 °F -23.0 °F -12.8 °F 81% 30.11 in 10.0 mi West 6.9 mph - N/A   Clear
3:15 AM -7.8 °F -23.6 °F -12.5 °F 80% 30.11 in 10.0 mi West 8.1 mph - N/A   Clear
3:35 AM -8.1 °F -21.2 °F -13.0 °F 79% 30.12 in 10.0 mi West 5.8 mph - N/A   Clear
3:55 AM -8.9 °F -23.6 °F -13.7 °F 79% 30.11 in 10.0 mi West 6.9 mph - N/A   Clear
4:15 AM -9.2 °F -26.6 °F -14.3 °F 79% 30.12 in 10.0 mi West 9.2 mph - N/A   Clear
4:35 AM -9.4 °F -25.6 °F -14.3 °F 79% 30.13 in 10.0 mi West 8.1 mph - N/A   Clear
4:55 AM -10.3 °F -25.4 °F -15.0 °F 80% 30.14 in 10.0 mi West 6.9 mph - N/A   Clear
5:15 AM -10.5 °F -24.0 °F -15.5 °F 78% 30.16 in 10.0 mi West 5.8 mph - N/A   Clear
5:35 AM -10.3 °F -26.7 °F -15.3 °F 78% 30.17 in 10.0 mi West 8.1 mph - N/A   Clear
5:55 AM -10.7 °F -25.8 °F -15.9 °F 78% 30.19 in 10.0 mi West 6.9 mph - N/A   Clear
6:15 AM -11.2 °F -27.8 °F -16.6 °F 77% 30.19 in 10.0 mi West 8.1 mph - N/A   Clear
6:35 AM -11.6 °F -29.5 °F -16.6 °F 78% 30.20 in 10.0 mi West 9.2 mph - N/A   Clear
6:55 AM -12.1 °F -28.9 °F -17.5 °F 77% 30.20 in 10.0 mi West 8.1 mph - N/A   Clear
7:15 AM -12.6 °F -28.2 °F -18.0 °F 77% 30.22 in 10.0 mi WNW 6.9 mph - N/A   Clear
7:35 AM -13.2 °F -25.3 °F -18.6 °F 77% 30.23 in 10.0 mi West 4.6 mph - N/A   Clear
7:55 AM -13.7 °F -29.5 °F -19.1 °F 77% 30.23 in 10.0 mi West 6.9 mph - N/A   Clear
8:15 AM -13.0 °F -28.6 °F -18.4 °F 77% 30.25 in 10.0 mi WSW 6.9 mph - N/A   Clear
8:35 AM -12.3 °F -29.1 °F -17.7 °F 77% 30.25 in 10.0 mi West 8.1 mph - N/A   Clear
8:55 AM -11.7 °F -28.5 °F -17.1 °F 77% 30.27 in 10.0 mi West 8.1 mph - N/A   Clear
9:15 AM -10.5 °F -26.9 °F -15.9 °F 77% 30.27 in 10.0 mi West 8.1 mph - N/A   Clear
9:35 AM -9.9 °F -29.6 °F -15.7 °F 76% 30.28 in 10.0 mi West 11.5 mph 16.1 mph N/A   Clear
9:55 AM -9.4 °F -25.6 °F -15.3 °F 75% 30.29 in 10.0 mi WNW 8.1 mph - N/A   Clear
10:15 AM -8.5 °F -25.7 °F -14.8 °F 74% 30.29 in 10.0 mi West 9.2 mph - N/A   Clear
10:35 AM -7.8 °F -27.7 °F -14.4 °F 73% 30.30 in 10.0 mi West 12.7 mph - N/A   Clear
10:55 AM -7.2 °F -25.2 °F -14.3 °F 71% 30.29 in 10.0 mi WNW 10.4 mph 16.1 mph N/A   Clear
11:15 AM -6.5 °F -24.3 °F -13.7 °F 71% 30.29 in 10.0 mi West 10.4 mph - N/A   Clear
11:35 AM -6.0 °F -21.5 °F -13.5 °F 70% 30.29 in 10.0 mi West 8.1 mph 17.3 mph N/A   Scattered Clouds
11:55 AM -5.3 °F -20.6 °F -13.4 °F 68% 30.28 in 10.0 mi West 8.1 mph - N/A   Scattered Clouds
12:15 PM -4.9 °F -18.8 °F -13.2 °F 68% 30.28 in 10.0 mi West 6.9 mph - N/A   Scattered Clouds
12:35 PM -4.4 °F -19.5 °F -12.8 °F 67% 30.28 in 10.0 mi West 8.1 mph - N/A   Scattered Clouds
12:55 PM -4.0 °F -19.0 °F -12.6 °F 66% 30.28 in 10.0 mi West 8.1 mph - N/A   Scattered Clouds
1:15 PM -4.0 °F -21.2 °F -13.0 °F 65% 30.27 in 10.0 mi WSW 10.4 mph - N/A   Scattered Clouds
1:35 PM -4.0 °F -21.2 °F -13.0 °F 65% 30.27 in 10.0 mi West 10.4 mph - N/A   Clear
1:55 PM -3.8 °F -18.8 °F -12.8 °F 65% 30.27 in 10.0 mi West 8.1 mph - N/A   Clear
2:15 PM -4.0 °F -20.2 °F -13.0 °F 65% 30.26 in 10.0 mi West 9.2 mph - N/A   Clear
2:35 PM -4.0 °F -22.1 °F -13.0 °F 65% 30.27 in 10.0 mi West 11.5 mph - N/A   Clear
2:55 PM -4.0 °F -22.1 °F -12.5 °F 67% 30.27 in 10.0 mi WSW 11.5 mph - N/A   Clear
3:15 PM -4.4 °F -22.6 °F -13.0 °F 66% 30.27 in 10.0 mi WSW 11.5 mph - N/A   Clear
3:35 PM -4.9 °F -21.3 °F -13.0 °F 68% 30.27 in 10.0 mi WSW 9.2 mph - N/A   Clear
3:55 PM -5.4 °F -20.8 °F -13.0 °F 70% 30.28 in 10.0 mi WSW 8.1 mph - N/A   Clear
4:15 PM -6.5 °F -19.3 °F -13.5 °F 72% 30.29 in 10.0 mi WSW 5.8 mph - N/A   Clear
4:35 PM -7.4 °F -20.4 °F -13.9 °F 73% 30.29 in 10.0 mi WSW 5.8 mph - N/A   Clear
4:55 PM -8.0 °F -21.0 °F -13.9 °F 75% 30.30 in 10.0 mi WSW 5.8 mph - N/A   Clear
5:15 PM -8.7 °F -20.0 °F -14.3 °F 77% 30.29 in 10.0 mi SW 4.6 mph - N/A   Clear
5:35 PM -9.2 °F -18.4 °F -14.8 °F 76% 30.29 in 10.0 mi WSW 3.5 mph - N/A   Clear
5:55 PM -9.6 °F -21.1 °F -15.0 °F 77% 30.29 in 10.0 mi SW 4.6 mph - N/A   Clear
6:15 PM -10.5 °F -19.8 °F -15.5 °F 78% 30.29 in 10.0 mi SW 3.5 mph - N/A   Clear
6:35 PM -11.0 °F -20.4 °F -15.7 °F 80% 30.28 in 10.0 mi SW 3.5 mph - N/A   Clear
6:55 PM -11.9 °F -21.5 °F -16.6 °F 80% 30.28 in 10.0 mi SW 3.5 mph - N/A   Clear
7:15 PM -12.3 °F - -16.8 °F 80% 30.28 in 10.0 mi Calm Calm - N/A   Clear
7:35 PM -12.3 °F -21.9 °F -16.8 °F 80% 30.27 in 10.0 mi SSW 3.5 mph - N/A   Clear
7:55 PM -12.8 °F -22.5 °F -17.5 °F 80% 30.27 in 10.0 mi SW 3.5 mph - N/A   Clear
8:15 PM -12.5 °F -24.4 °F -17.3 °F 79% 30.27 in 10.0 mi SW 4.6 mph - N/A   Clear
8:35 PM -12.3 °F -24.2 °F -17.3 °F 78% 30.27 in 10.0 mi SW 4.6 mph - N/A   Clear
8:55 PM -12.1 °F -21.7 °F -17.0 °F 79% 30.25 in 10.0 mi SSW 3.5 mph - N/A   Clear
9:15 PM -12.1 °F -21.7 °F -16.8 °F 80% 30.24 in 10.0 mi SSW 3.5 mph - N/A   Scattered Clouds
9:35 PM -11.4 °F -23.2 °F -16.4 °F 78% 30.24 in 10.0 mi SW 4.6 mph - N/A   Scattered Clouds
9:55 PM -10.5 °F -24.0 °F -15.7 °F 78% 30.24 in 10.0 mi SW 5.8 mph - N/A   Scattered Clouds
10:15 PM -9.9 °F -24.9 °F -15.3 °F 77% 30.23 in 10.0 mi SW 6.9 mph - N/A   Scattered Clouds
10:35 PM -9.8 °F -21.3 °F -15.3 °F 76% 30.23 in 10.0 mi SW 4.6 mph - N/A   Mostly Cloudy
10:55 PM -9.4 °F -22.7 °F -15.0 °F 76% 30.22 in 10.0 mi SW 5.8 mph - N/A   Overcast
11:15 PM -9.4 °F -24.3 °F -15.0 °F 76% 30.21 in 10.0 mi SW 6.9 mph - N/A   Overcast
11:35 PM -9.6 °F -21.1 °F -15.2 °F 76% 30.21 in 10.0 mi SW 4.6 mph - N/A   Overcast
11:55 PM -9.4 °F -22.7 °F -14.8 °F 77% 30.21 in 10.0 mi SW 5.8 mph - N/A   Overcast